SQP315 UKBB-UKLL

Flight info

Callsign SQP315
Flight time 0h 59m
Altitude 28000
Route KAFEL P27 GORKU
Aircraft B738/M-SDE2E3FGHIRWXY/LB1

Departure

Time 2026-04-22 10:57
Airport Boryspil International Airport (UKBB)

Arrival

Time 2026-04-22 11:56
Airport Lviv International Airport (UKLL)
Time Latitude Longitude Altitude Speed Heading
2026-04-22 10:28 50.35186 30.89885 426 ft 0 kts 274°
2026-04-22 10:34 50.35150 30.89884 426 ft 0 kts 274°
2026-04-22 10:46 50.35150 30.89888 426 ft 2 kts 274°
2026-04-22 10:46 50.35149 30.89911 426 ft 2 kts 273°
2026-04-22 10:46 50.35148 30.89934 426 ft 2 kts 274°
2026-04-22 10:46 50.35148 30.89949 426 ft 2 kts 273°
2026-04-22 10:47 50.35150 30.89973 426 ft 2 kts 245°
2026-04-22 10:47 50.35158 30.89992 426 ft 2 kts 225°
2026-04-22 10:47 50.35170 30.90006 426 ft 2 kts 205°
2026-04-22 10:47 50.35182 30.90012 426 ft 1 kts 187°
2026-04-22 10:48 50.35186 30.90013 426 ft 1 kts 180°
2026-04-22 10:48 50.35191 30.90013 426 ft 0 kts 182°
2026-04-22 10:50 50.35186 30.90013 426 ft 1 kts 182°
2026-04-22 10:50 50.35166 30.90011 426 ft 4 kts 183°
2026-04-22 10:50 50.35124 30.90007 426 ft 7 kts 183°
2026-04-22 10:51 50.35063 30.90003 426 ft 10 kts 182°
2026-04-22 10:51 50.34986 30.89997 426 ft 11 kts 182°
2026-04-22 10:51 50.34907 30.90022 426 ft 12 kts 133°
2026-04-22 10:51 50.34886 30.90152 426 ft 12 kts 100°
2026-04-22 10:52 50.34823 30.90227 426 ft 12 kts 176°
2026-04-22 10:52 50.34736 30.90222 426 ft 13 kts 182°
2026-04-22 10:52 50.34634 30.90214 426 ft 16 kts 182°
2026-04-22 10:52 50.34510 30.90205 426 ft 19 kts 183°
2026-04-22 10:53 50.34365 30.90193 426 ft 22 kts 183°
2026-04-22 10:53 50.34213 30.90183 426 ft 21 kts 182°
2026-04-22 10:53 50.34059 30.90172 426 ft 22 kts 182°
2026-04-22 10:53 50.33901 30.90160 426 ft 23 kts 182°
2026-04-22 10:54 50.33733 30.90148 426 ft 24 kts 182°
2026-04-22 10:54 50.33565 30.90135 426 ft 24 kts 182°
2026-04-22 10:54 50.33397 30.90123 426 ft 19 kts 182°
2026-04-22 10:54 50.33320 30.90196 426 ft 9 kts 102°
2026-04-22 10:55 50.33318 30.90229 426 ft 0 kts 94°
2026-04-22 10:55 50.33318 30.90246 426 ft 3 kts 93°
2026-04-22 10:55 50.33316 30.90315 426 ft 8 kts 85°
2026-04-22 10:56 50.33354 30.90417 426 ft 13 kts 37°
2026-04-22 10:56 50.33452 30.90453 426 ft 16 kts
2026-04-22 10:56 50.33674 30.90469 426 ft 64 kts
2026-04-22 10:56 50.34347 30.90519 426 ft 128 kts
2026-04-22 10:57 50.35418 30.90596 488 ft 173 kts
2026-04-22 10:57 50.36612 30.90699 1166 ft 173 kts
2026-04-22 10:57 50.37837 30.90808 1611 ft 184 kts
2026-04-22 10:57 50.39170 30.91017 1982 ft 201 kts
2026-04-22 10:58 50.40603 30.91162 2524 ft 210 kts
2026-04-22 10:58 50.42102 30.91267 3020 ft 223 kts
2026-04-22 10:58 50.43698 30.91325 3435 ft 240 kts
2026-04-22 10:58 50.45396 30.91402 3995 ft 250 kts
2026-04-22 10:59 50.47138 30.91512 4688 ft 254 kts
2026-04-22 10:59 50.48925 30.91616 5370 ft 260 kts
2026-04-22 10:59 50.50740 30.91687 5999 ft 267 kts 359°
2026-04-22 10:59 50.52560 30.91154 6658 ft 272 kts 335°
2026-04-22 11:00 50.53970 30.89221 7425 ft 274 kts 302°
2026-04-22 11:00 50.54488 30.86346 8140 ft 280 kts 270°
2026-04-22 11:00 50.53933 30.83477 8815 ft 286 kts 237°
2026-04-22 11:00 50.52502 30.81339 9554 ft 289 kts 216°
2026-04-22 11:01 50.50966 30.79306 10249 ft 292 kts 232°
2026-04-22 11:01 50.50094 30.76386 10729 ft 301 kts 263°
2026-04-22 11:01 50.50315 30.73158 11332 ft 305 kts 293°
2026-04-22 11:01 50.51527 30.70481 12024 ft 307 kts 316°
2026-04-22 11:02 50.53011 30.68019 12749 ft 312 kts 306°
2026-04-22 11:02 50.53860 30.64913 13441 ft 317 kts 279°
2026-04-22 11:02 50.53674 30.61487 14153 ft 322 kts 251°
2026-04-22 11:02 50.52441 30.58536 14858 ft 328 kts 225°
2026-04-22 11:03 50.50728 30.56159 15591 ft 331 kts 225°
2026-04-22 11:03 50.49264 30.53414 16264 ft 334 kts 237°
2026-04-22 11:03 50.48038 30.50300 16963 ft 336 kts 241°
2026-04-22 11:03 50.46868 30.47109 17640 ft 340 kts 242°
2026-04-22 11:04 50.45715 30.43901 18297 ft 343 kts 243°
2026-04-22 11:04 50.44561 30.40619 18946 ft 346 kts 243°
2026-04-22 11:04 50.43411 30.37286 19580 ft 348 kts 245°
2026-04-22 11:04 50.42405 30.33817 20186 ft 350 kts 251°
2026-04-22 11:05 50.41820 30.30087 20779 ft 351 kts 264°
2026-04-22 11:05 50.41695 30.26312 21371 ft 352 kts 271°
2026-04-22 11:05 50.41857 30.22467 21932 ft 354 kts 281°
2026-04-22 11:05 50.42489 30.18766 22488 ft 355 kts 289°
2026-04-22 11:06 50.43296 30.15068 23038 ft 357 kts 289°
2026-04-22 11:06 50.44058 30.11385 23549 ft 360 kts 288°
2026-04-22 11:06 50.44816 30.07621 24073 ft 363 kts 288°
2026-04-22 11:06 50.45587 30.03826 24567 ft 365 kts 288°
2026-04-22 11:07 50.46363 30.00010 25058 ft 368 kts 288°
2026-04-22 11:07 50.47142 29.96172 25534 ft 370 kts 288°
2026-04-22 11:07 50.47917 29.92339 26001 ft 372 kts 288°
2026-04-22 11:07 50.48696 29.88475 26440 ft 375 kts 288°
2026-04-22 11:08 50.49493 29.84524 26870 ft 377 kts 288°
2026-04-22 11:08 50.50277 29.80624 27297 ft 379 kts 288°
2026-04-22 11:08 50.51078 29.76631 27712 ft 382 kts 288°
2026-04-22 11:08 50.51872 29.72668 27952 ft 386 kts 288°
2026-04-22 11:09 50.52683 29.68610 27935 ft 386 kts 288°
2026-04-22 11:09 50.53479 29.64612 27939 ft 383 kts 288°
2026-04-22 11:09 50.54268 29.60651 27939 ft 380 kts 288°
2026-04-22 11:09 50.55058 29.56681 27939 ft 380 kts 288°
2026-04-22 11:10 50.55844 29.52717 27939 ft 381 kts 288°
2026-04-22 11:10 50.56635 29.48727 27939 ft 381 kts 288°
2026-04-22 11:10 50.57419 29.44755 27938 ft 382 kts 288°
2026-04-22 11:10 50.58212 29.40728 27939 ft 381 kts 288°
2026-04-22 11:11 50.58991 29.36768 27938 ft 380 kts 288°
2026-04-22 11:11 50.59596 29.32710 27938 ft 381 kts 279°
2026-04-22 11:11 50.59762 29.28525 27939 ft 383 kts 269°
2026-04-22 11:11 50.59444 29.24351 27939 ft 386 kts 259°
2026-04-22 11:12 50.58683 29.20323 27939 ft 387 kts 250°
2026-04-22 11:12 50.57662 29.16378 27939 ft 387 kts 249°
2026-04-22 11:12 50.56662 29.12461 27939 ft 386 kts 250°
2026-04-22 11:12 50.55694 29.08542 27939 ft 386 kts 250°
2026-04-22 11:13 50.54721 29.04642 27939 ft 386 kts 250°
2026-04-22 11:13 50.53710 29.00663 27939 ft 386 kts 250°
2026-04-22 11:13 50.52714 28.96768 27939 ft 384 kts 249°
2026-04-22 11:13 50.51727 28.92905 27938 ft 381 kts 249°
2026-04-22 11:14 50.50745 28.89057 27939 ft 380 kts 249°
2026-04-22 11:14 50.49753 28.85182 27939 ft 378 kts 248°
2026-04-22 11:14 50.48766 28.81350 27939 ft 379 kts 248°
2026-04-22 11:14 50.47786 28.77551 27939 ft 380 kts 248°
2026-04-22 11:15 50.46781 28.73661 27938 ft 380 kts 248°
2026-04-22 11:15 50.45832 28.69828 27938 ft 380 kts 251°
2026-04-22 11:15 50.45114 28.65846 27940 ft 380 kts 256°
2026-04-22 11:15 50.44508 28.61757 27939 ft 381 kts 256°
2026-04-22 11:16 50.43883 28.57747 27939 ft 381 kts 255°
2026-04-22 11:16 50.43233 28.53721 27943 ft 381 kts 255°
2026-04-22 11:16 50.42585 28.49657 27963 ft 380 kts 256°
2026-04-22 11:16 50.41956 28.45648 27983 ft 380 kts 256°
2026-04-22 11:17 50.41325 28.41637 28006 ft 380 kts 256°
2026-04-22 11:17 50.40048 28.33609 28056 ft 379 kts 255°
2026-04-22 11:18 50.38759 28.25571 28068 ft 379 kts 255°
2026-04-22 11:18 50.37490 28.17587 28059 ft 379 kts 255°
2026-04-22 11:19 50.36200 28.09575 28050 ft 380 kts 255°
2026-04-22 11:19 50.34893 28.01526 28047 ft 380 kts 255°
2026-04-22 11:20 50.33603 27.93517 28047 ft 379 kts 255°
2026-04-22 11:20 50.32291 27.85468 28047 ft 381 kts 255°
2026-04-22 11:21 50.30956 27.77450 28047 ft 380 kts 254°
2026-04-22 11:21 50.29586 27.69513 28047 ft 380 kts 254°
2026-04-22 11:22 50.28216 27.61536 28047 ft 380 kts 254°
2026-04-22 11:22 50.26841 27.53560 28047 ft 380 kts 254°
2026-04-22 11:23 50.25452 27.45592 28047 ft 380 kts 254°
2026-04-22 11:23 50.24061 27.37608 28047 ft 380 kts 254°
2026-04-22 11:24 50.22667 27.29667 28047 ft 380 kts 253°
2026-04-22 11:24 50.21253 27.21695 28046 ft 380 kts 253°
2026-04-22 11:25 50.19860 27.13781 28047 ft 380 kts 253°
2026-04-22 11:25 50.18454 27.05823 28047 ft 381 kts 253°
2026-04-22 11:26 50.16559 26.98075 28047 ft 384 kts 246°
2026-04-22 11:26 50.14493 26.90398 28047 ft 385 kts 247°
2026-04-22 11:27 50.12434 26.82630 28047 ft 388 kts 247°
2026-04-22 11:27 50.10375 26.74923 28047 ft 387 kts 247°
2026-04-22 11:28 50.08306 26.67180 28047 ft 386 kts 247°
2026-04-22 11:28 50.06229 26.59442 28047 ft 387 kts 247°
2026-04-22 11:29 50.04158 26.51771 28047 ft 386 kts 247°
2026-04-22 11:29 50.02081 26.44080 28047 ft 386 kts 247°
2026-04-22 11:30 49.99993 26.36374 28047 ft 387 kts 247°
2026-04-22 11:30 49.97775 26.28805 28047 ft 387 kts 244°
2026-04-22 11:31 49.95492 26.21254 28047 ft 387 kts 244°
2026-04-22 11:31 49.93223 26.13667 28047 ft 386 kts 244°
2026-04-22 11:32 49.90953 26.06140 28047 ft 387 kts 244°
2026-04-22 11:32 49.88665 25.98556 28046 ft 387 kts 244°
2026-04-22 11:33 49.86391 25.91039 28047 ft 386 kts 244°
2026-04-22 11:33 49.84096 25.83486 28047 ft 387 kts 244°
2026-04-22 11:34 49.81808 25.75966 28047 ft 387 kts 244°
2026-04-22 11:34 49.79528 25.68518 28017 ft 375 kts 244°
2026-04-22 11:34 49.78429 25.64926 27696 ft 369 kts 244°
2026-04-22 11:35 49.77334 25.61344 27273 ft 366 kts 244°
2026-04-22 11:35 49.76249 25.57812 26835 ft 363 kts 244°
2026-04-22 11:35 49.75176 25.54331 26397 ft 360 kts 244°
2026-04-22 11:35 49.74101 25.50846 25958 ft 358 kts 244°
2026-04-22 11:36 49.73044 25.47420 25523 ft 355 kts 244°
2026-04-22 11:36 49.71985 25.43996 25090 ft 353 kts 244°
2026-04-22 11:36 49.70935 25.40602 24659 ft 350 kts 244°
2026-04-22 11:36 49.69889 25.37225 24228 ft 348 kts 244°
2026-04-22 11:37 49.68839 25.33844 23797 ft 345 kts 243°
2026-04-22 11:37 49.67817 25.30555 23376 ft 343 kts 243°
2026-04-22 11:37 49.66787 25.27242 22952 ft 341 kts 243°
2026-04-22 11:37 49.65764 25.23960 22531 ft 339 kts 243°
2026-04-22 11:38 49.64736 25.20664 22109 ft 336 kts 243°
2026-04-22 11:38 49.63726 25.17430 21693 ft 334 kts 243°
2026-04-22 11:38 49.61992 25.10854 20865 ft 330 kts 256°
2026-04-22 11:39 49.61707 25.07394 20458 ft 329 kts 268°
2026-04-22 11:39 49.61868 25.03877 20032 ft 329 kts 277°
2026-04-22 11:39 49.62449 25.00428 19600 ft 329 kts 289°
2026-04-22 11:39 49.63345 24.97218 19180 ft 328 kts 292°
2026-04-22 11:40 49.64267 24.94012 18756 ft 327 kts 291°
2026-04-22 11:40 49.65154 24.90802 18340 ft 325 kts 291°
2026-04-22 11:40 49.66046 24.87590 17923 ft 324 kts 291°
2026-04-22 11:40 49.66930 24.84428 17511 ft 322 kts 291°
2026-04-22 11:41 49.67812 24.81267 17100 ft 321 kts 291°
2026-04-22 11:41 49.68691 24.78113 16689 ft 319 kts 291°
2026-04-22 11:41 49.69562 24.74984 16281 ft 318 kts 291°
2026-04-22 11:41 49.70432 24.71855 15872 ft 316 kts 291°
2026-04-22 11:42 49.71296 24.68744 15464 ft 315 kts 291°
2026-04-22 11:42 49.72160 24.65629 15054 ft 314 kts 291°
2026-04-22 11:42 49.73019 24.62525 14645 ft 312 kts 291°
2026-04-22 11:42 49.73872 24.59443 14238 ft 311 kts 292°
2026-04-22 11:43 49.74710 24.56411 13838 ft 310 kts 292°
2026-04-22 11:43 49.75563 24.53318 13431 ft 309 kts 292°
2026-04-22 11:43 49.76402 24.50274 13028 ft 308 kts 292°
2026-04-22 11:43 49.77236 24.47243 12626 ft 306 kts 292°
2026-04-22 11:44 49.78058 24.44250 12229 ft 305 kts 292°
2026-04-22 11:44 49.78889 24.41223 11828 ft 304 kts 292°
2026-04-22 11:44 49.79713 24.38217 11474 ft 301 kts 292°
2026-04-22 11:44 49.80523 24.35264 11313 ft 291 kts 292°
2026-04-22 11:45 49.81293 24.32449 11218 ft 280 kts 291°
2026-04-22 11:45 49.82287 24.29896 10971 ft 276 kts 311°
2026-04-22 11:45 49.83668 24.27843 10641 ft 275 kts 313°
2026-04-22 11:45 49.84705 24.25471 10323 ft 267 kts 286°
2026-04-22 11:46 49.84808 24.22682 10035 ft 259 kts 257°
2026-04-22 11:46 49.84218 24.20077 9741 ft 255 kts 240°
2026-04-22 11:46 49.83108 24.18012 9459 ft 251 kts 217°
2026-04-22 11:46 49.81527 24.16971 9183 ft 248 kts 191°
2026-04-22 11:47 49.79838 24.16895 8897 ft 246 kts 171°
2026-04-22 11:47 49.78292 24.17948 8620 ft 246 kts 141°
2026-04-22 11:47 49.77099 24.19820 8351 ft 246 kts 136°
2026-04-22 11:47 49.75825 24.21665 8059 ft 250 kts 139°
2026-04-22 11:48 49.74567 24.23497 7773 ft 248 kts 138°
2026-04-22 11:48 49.73327 24.25334 7411 ft 249 kts 137°
2026-04-22 11:48 49.72070 24.27198 7101 ft 247 kts 137°
2026-04-22 11:48 49.70840 24.29026 6804 ft 246 kts 137°
2026-04-22 11:49 49.69608 24.30858 6520 ft 243 kts 137°
2026-04-22 11:49 49.68351 24.32587 6232 ft 240 kts 149°
2026-04-22 11:49 49.66842 24.33423 5971 ft 230 kts 178°
2026-04-22 11:49 49.65262 24.33126 5714 ft 233 kts 201°
2026-04-22 11:50 49.63909 24.31832 5448 ft 227 kts 225°
2026-04-22 11:50 49.62827 24.30063 5195 ft 223 kts 229°
2026-04-22 11:50 49.62023 24.28075 4941 ft 219 kts 253°
2026-04-22 11:50 49.61930 24.25694 4693 ft 227 kts 279°
2026-04-22 11:51 49.62546 24.23484 4428 ft 226 kts 306°
2026-04-22 11:51 49.63649 24.21754 4171 ft 224 kts 314°
2026-04-22 11:51 49.64753 24.20105 3933 ft 220 kts 313°
2026-04-22 11:51 49.65831 24.18488 3790 ft 209 kts 314°
2026-04-22 11:52 49.66849 24.16967 3658 ft 198 kts 314°
2026-04-22 11:52 49.67820 24.15522 3499 ft 195 kts 314°
2026-04-22 11:52 49.68803 24.14055 3294 ft 196 kts 314°
2026-04-22 11:52 49.69779 24.12600 3106 ft 194 kts 314°
2026-04-22 11:53 49.70755 24.11143 2966 ft 191 kts 314°
2026-04-22 11:53 49.71673 24.09772 2966 ft 180 kts 314°
2026-04-22 11:53 49.72575 24.08424 2964 ft 174 kts 315°
2026-04-22 11:53 49.73434 24.07137 2897 ft 175 kts 315°
2026-04-22 11:54 49.74286 24.05863 2652 ft 163 kts 315°
2026-04-22 11:54 49.75037 24.04740 2490 ft 140 kts 315°
2026-04-22 11:54 49.75740 24.03686 2281 ft 140 kts 315°
2026-04-22 11:54 49.76429 24.02656 2092 ft 139 kts 315°
2026-04-22 11:55 49.77127 24.01611 1920 ft 137 kts 315°
2026-04-22 11:55 49.77806 24.00592 1731 ft 138 kts 315°
2026-04-22 11:55 49.78490 23.99564 1541 ft 138 kts 315°
2026-04-22 11:55 49.79179 23.98520 1353 ft 138 kts 316°
2026-04-22 11:56 49.79870 23.97503 1176 ft 137 kts 316°
2026-04-22 11:56 49.80534 23.96502 1086 ft 116 kts 316°
2026-04-22 11:56 49.80968 23.95849 1085 ft 60 kts 315°
2026-04-22 11:56 49.81160 23.95564 1085 ft 23 kts 322°
2026-04-22 11:57 49.81257 23.95612 1085 ft 13 kts 46°
2026-04-22 11:57 49.81268 23.95733 1085 ft 12 kts 126°
2026-04-22 11:57 49.81221 23.95827 1085 ft 10 kts 90°
2026-04-22 11:57 49.81253 23.95901 1085 ft 5 kts 45°
2026-04-22 11:58 49.81265 23.95920 1085 ft 0 kts 45°